Regional Weather Roundup
Issued by NWS Mobile, AL

Home | Current Version | Previous Version | Text Only | Print | Product List | Glossary On
Versions: 1 2 3 4 5 6 7 8 9 10 11 12 13 14 15 16 17 18 19 20 21 22 23 24 25 26 27 28 29 30 31 32 33 34 35 36 37 38 39 40 41 42 43 44 45 46 47 48 49 50
000
ASUS44 KMOB 221312
RWRMOB
REGIONAL WEATHER ROUNDUP
NATIONAL WEATHER SERVICE MOBILE AL
800 AM CDT TUE AUG 22 2017

NOTE: "FAIR" INDICATES FEW OR NO CLOUDS BELOW 12,000 FEET WITH NO
      SIGNIFICANT WEATHER AND/OR OBSTRUCTIONS TO VISIBILITY.

  * THESE STATIONS ARE PART OF THE UNIVERSITY OF SOUTH ALABAMA
    MESONET AND ARE NOT UNDER NWS OR FAA QUALITY CONTROL.

ALZ061>064-221400-
COASTAL ALABAMA

CITY           SKY/WX    TMP DP  RH WIND       PRES   REMARKS
MOBILE REG APT MOSUNNY   79  75  87 NE5       30.10R
BROOKLEY FIELD MOSUNNY   81  79  94 NE6       30.10R
USA CAMPUS*      N/A     75  72  88 NE3       30.10R
DOG RIVER*     NOT AVBL


CITY           SKY/WX    TMP DP  RH WIND       PRES   REMARKS
GULF SHORES    SUNNY     79  79 100 NE5       30.08R

$$

ALZ051>060-221400-
INTERIOR SOUTHWEST AND SOUTH CENTRAL ALABAMA

CITY           SKY/WX    TMP DP  RH WIND       PRES   REMARKS
GREENVILLE     MOSUNNY   77  72  84 CALM      30.12R
EVERGREEN      SUNNY     76  73  91 CALM      30.12R
ATMORE*        NOT AVBL
ANDALUSIA/OPP  SUNNY     79  73  82 E3        30.11R
ANDALUSIA*       N/A     77  73  88 E5        30.12R
FLORALA APT      N/A    N/A N/A N/A MISG      30.13R
FLORALA*         N/A     75  75 100 CALM      30.83R

$$

FLZ001>006-221400-
WESTERN FLORIDA PANHANDLE

CITY           SKY/WX    TMP DP  RH WIND       PRES   REMARKS
PENSACOLA      SUNNY     81  74  79 NE6       30.09R
NAS PENSACOLA  PTSUNNY   82  77  84 NE7       30.08R
MILTON         MOSUNNY   78  74  87 NE6       30.10R
WHTNG S FIELD  MOSUNNY   81  75  82 E6        30.10R


CITY           SKY/WX    TMP DP  RH WIND       PRES   REMARKS
JAY*             N/A     77  77 100 CALM      30.10R
DUKE FIELD     SUNNY     76  74  93 NE3       30.10R
CRESTVIEW      SUNNY     76  73  91 E3        30.12R
VALPARAISO     MOSUNNY   78  73  85 NE5       30.09R
DESTIN         PTSUNNY   83  76  79 E8        30.09R

$$

MSZ076-079-221400-
INTERIOR SOUTHEAST MISSISSIPPI

CITY           SKY/WX    TMP DP  RH WIND       PRES   REMARKS
LEAKESVILLE*     N/A     75  73  94 SE5       30.11R
AGRICOLA*        N/A     77  75  94 CALM      30.09R

$$

MARINE OBSERVATIONS

STATION/POSITION TIME  TEMP    WIND        PRES    WAVE
                       AIR SEA DIR/SP/G            HT/PER
                 (UTC) (F)     (DEG/KT/KT) (MB)    (FT/S)
PASCAGOULA       1248   79      10/  5/  7 1018.4R
PETIT BOIS ISLND 1248   82      40/ 10/ 12 1019.1R
GRAND BAY        1130   76      20/  5     1018.0S
KATRINA CUT      1230   82      40/ 10     1018.0R
CEDAR POINT      1230   84      60/  8     1018.0R
E DAUPHIN ISLAND 1200   82      50/ 11/ 12 1017.5R
MIDDLE BAY LIGHT 1230   82      60/ 10     1018.0R
USCG MOBILE BAY  1248   80 86   30/  4/  5 1019.4R
STATE DOCKS      1248   82 86              1018.7R
MEAHER PARK      1230   80      40/  1     1018.6R
WEEKS BAY        1145   75                   N/A
FORT MORGAN      1248   82      80/ 11/ 14   N/A
12 S ORANGE BCH  1250   85 87  100/  6/  6 1018.0R   2/ 7
PENSACOLA BAY    1248   80 88              1019.0R
64 S DAUPHIN ISL 1250   85 87  120/  8/ 10 1018.0R   2/ 6
67 S FORT MORGAN 1230   84     110/  8     1018.0R

$$

SELECTED LOCATIONS ACROSS THE REGION

CITY           SKY/WX    TMP DP  RH WIND       PRES   REMARKS
NEW ORLEANS    MOSUNNY   83  77  82 CALM      30.07R
GULFPORT       SUNNY     79  74  84 NE6       30.07R
PASCAGOULA AP  SUNNY     78  75  90 N3        30.08R
PASCAGOULA*      N/A    N/A N/A N/A NE3         N/A
HATTIESBURG    SUNNY     76  75  97 CALM      30.10R
LAUREL         SUNNY     75  73  93 CALM      30.11R FOG
MERIDIAN       SUNNY     77  75  93 S6        30.11R
JACKSON        SUNNY     77  74  90 S3        30.10R
MONTGOMERY     SUNNY     80  73  79 SE3       30.11R
TROY           SUNNY     75  74  96 E3        30.13R
ASHFORD*         N/A     77  73  88 E5        30.12R
DOTHAN         SUNNY     78  77  96 CALM      30.15R
PANAMA CITY    SUNNY     79  75  87 NE6       30.08R

$$




USA.gov is the U.S. government's official web portal to all federal, state and local government web resources and services.